Location: Chaumontel
(49.1247°N, 2.4324°E)
Time: 19:46:42
(UTC+00:00)

Resurs 01 Rocket - Pass Details

Date: 03 February 2023
Orbit: 632 x 643 km, 97.9° (Epoch: 25 March)

Event Time Altitude Azimuth Distance (km) Brightness Sun altitude
Exits shadow 18:59:52 10° 14° (NNE) 2,039 4.1 -21.4°
Drops below altitude 10° 18:59:55 10° 13° (NNE) 2,051 4.1 -21.4°
Sets 19:02:33 0° 358° (N) 2,967 5.1 -21.9°
